SCP
0 0 0 0 0 0 0 0 0 0 0 0 0 0 0 0 0 0 0 0 0 0 0 0 0 0 0 0 0 0 0 0 0 0 0 0 0 0
0 0 0 0 0 0 0 0 0 0 0 0 0 0 0 0 0 0 0 0 0 0 0 0 0 0 0 0 0 0 0 0 0 0 0 0 0 0
0 0 0 0 0 0 0 0 0 0 0 0 0 0 0 0 0 0 0 0 0 0 0 0 0 0 0 0 0 0 0 0 0 0 0 0 0 0
0 0 0 0 0 0 0 0 0 0 0 0 0 0 0 0 0 0 0 0 0 0 0 0 0 0 0 0 0 0 0 0 0 0 0 0 0 0
0 0 0 0 0 0 0 0 0 0 0 0 0 0 0 0 0 0 0 0 0 0 0 0 0 0 0 0 0 0 0 0 0 0 0 0 0 0
0 0 0 0 0 0 0 0 0 0 0 0 0 0 0 0 0 0 0 0 0 0 0 0 0 0 0 0 0 0 0 0 0 0 0 0 0 0
0 0 0 0 0 0 0 0 0 0 0 0 0 0 0 0 0 0 0 0 0 0 0 0 0 0 0 0 0 0 0 0 0 0 0 0 0 0
0 0 0 0 0 0 0 0 0 0 0 0 0 0 0 0 0 0 0 0 0 0 0 0 0 0 0 0 0 0 0 0 0 0 0 0 0 0
0 0 0 0 0 0 0 0 0 0 0 0 0 0 0 0 0 0 0 0 0 0 0 0 0 0 0 0 0 0 0 0 0 0 0 0 0 0
0 0 0 0 0 0 0 0 0 0 0 0 0 0 0 0 0 0 0 0 0 0 0 0 0 0 0 0 0 0 0 0 0 0 0 0 0 0
0 0 0 0 0 0 0 0 0 0 0 0 0 0 0 0 0 0 0 0 0 0 0 0 0 0 0 0 0 0 0 0 0 0 0 0 0 0
0 0 0 0 0 0 0 0 0 0 0 0 0 0 0 0 0 0 0 0 0 0 0 0 0 0 0 0 0 0 0 0 0 0 0 0 0 0
0 0 0 0 0 0 0 0 0 0 0 0 0 0 0 0 0 0 0 0 0 0 0 0 0 0 0 0 0 0 0 0 0 0 0 0 0 0
0 0 0 0 0 0 0 0 0 0 0 0 0 0 0 0 0 0 0 0 0 0 0 0 0 0 0 0 0 0 0 0 0 0 0 0 0 0
0 0 0 0 0 0 0 0 0 0 0 0 0 0 0 0 0 0 0 0 0 0 0 0 0 0 0 0 0 0 0 0 0 0 0 0 0 0
0 0 0 0 0 0 0 0 0 0 0 0 0 0 0 0 0 0 0 0 0 0 0 0 0 0 0 0 0 0 0 0 0 0 0 0 0 0
0 0 0 0 0 0 0 0 0 0 0 0 0 0 0 0 0 0 0 0 0 0 0 0 0 0 0 0 0 0 0 0 0 0 0 0 0 0
0 0 0 0 0 0 0 0 0 0 0 0 0 0 0 0 0 0 0 0 0 0 0 0 0 0 0 0 0 0 0 0 0 0 0 0 0 0
0 0 0 0 0 0 0 0 0 0 0 0 0 0 0 0 0 0 0 0 0 0 0 0 0 0 0 0 0 0 0 0 0 0 0 0 0 0
0 0 0 0 0 0 0 0 0 0 0 0 0 0 0 0 0 0 0 0 0 0 0 0 0 0 0 0 0 0 0 0 0 0 0 0 0 0
0 0 0 0 0 0 0 0 0 0 0 0 0 0 0 0 0 0 0 0 0 0 0 0 0 0 0 0 0 0 0 0 0 0 0 0 0 0
0 0 0 0 0 0 0 0 0 0 0 0 0 0 0 0 0 0 0 0 0 0 0 0 0 0 0 0 0 0 0 0 0 0 0 0 0 0
0 0 0 0 0 0 0 0 0 0 0 0 0 0 0 0 0 0 0 0 0 0 0 0 0 0 0 0 0 0 0 0 0 0 0 0 0 0
Wind_Speed
4 4 4 3 3 3 3 4 4 5 6 5 3 3 4 5 6 7 8 9 12 13 13 12 13 13 14 15 15 16 16 17 17 18 18 19 20 20
3 4 4 3 3 3 3 4 4 5 6 4 5 5 5 5 7 8 8 11 11 12 13 13 13 14 14 15 16 16 17 17 17 18 19 19 19 19
3 3 4 3 3 3 3 4 4 4 6 6 5 5 7 7 6 7 7 8 7 11 13 14 14 14 15 15 16 16 17 17 18 18 18 18 18 19
3 3 4 3 4 3 3 4 4 4 5 7 6 5 7 7 8 8 7 7 8 10 12 14 14 15 15 16 16 16 16 17 17 17 17 18 19 20
3 4 4 4 4 3 4 4 4 4 4 5 6 5 5 6 8 7 8 7 8 8 11 12 14 15 16 16 16 16 16 16 16 16 17 18 19 20
3 3 4 5 4 4 4 4 4 4 4 4 5 5 5 6 6 6 7 7 7 7 8 10 12 14 14 15 15 15 15 16 16 17 18 18 18 19
2 3 3 4 4 4 4 4 4 4 4 4 5 5 5 5 6 6 8 7 8 6 8 8 8 8 8 11 12 14 15 16 16 17 18 18 18 18
3 3 3 3 3 4 5 5 5 5 5 5 5 6 7 7 6 6 7 8 8 5 7 9 8 8 8 7 11 15 15 15 16 17 17 17 17 17
3 3 2 2 3 3 3 4 5 6 7 7 7 7 8 7 7 8 8 9 9 7 8 9 7 8 8 8 14 15 15 15 16 17 16 17 17 17
3 3 3 3 3 3 3 4 4 4 5 5 6 7 7 7 7 8 8 9 9 7 6 8 8 8 8 8 11 14 15 15 16 16 17 17 17 18
3 3 3 3 4 4 3 4 4 4 4 6 8 8 9 9 8 5 6 6 7 6 4 6 7 8 8 7 8 12 14 15 16 17 17 17 17 17
2 3 4 4 4 5 4 4 5 5 5 5 6 6 6 6 7 6 6 6 6 6 3 5 6 6 7 6 7 8 9 12 15 16 17 17 17 11
2 2 3 4 5 5 5 4 5 6 5 4 4 4 4 4 4 5 5 5 6 6 4 5 6 6 6 8 8 8 8 9 10 11 13 15 16 13
3 2 2 4 5 6 5 4 6 5 3 3 4 4 4 5 5 5 6 6 7 8 8 7 6 6 7 9 8 8 8 9 9 9 9 12 13 14
2 3 4 4 4 3 4 5 5 3 3 3 4 5 5 5 5 5 6 6 7 7 7 8 7 7 7 8 9 9 10 9 8 8 9 9 9 9
2 2 3 3 3 3 4 3 2 3 3 4 4 5 5 4 4 5 5 5 5 6 5 6 7 8 8 10 9 10 9 8 8 9 9 9 9 8
2 2 2 2 2 2 2 2 2 3 3 4 4 4 4 5 5 4 4 5 5 6 6 5 5 6 8 9 9 9 9 9 9 9 9 10 9 8
3 2 2 2 2 3 3 3 3 3 3 4 4 4 4 5 5 4 4 5 6 6 6 6 6 6 6 5 7 9 8 9 9 9 9 9 10 9
2 2 2 2 2 3 3 3 4 4 4 4 4 4 4 5 5 5 5 5 5 6 6 6 6 6 8 8 5 5 8 9 9 9 8 8 10 10
2 2 2 2 3 3 3 3 4 4 4 4 4 4 4 5 5 5 5 5 6 6 6 5 5 6 7 8 8 8 10 10 9 10 9 9 8 11
2 2 2 3 3 3 3 4 4 4 4 4 4 4 4 4 4 5 5 7 6 6 7 6 6 9 7 6 7 8 8 9 10 9 10 9 9 8
3 3 3 3 3 3 4 4 4 4 4 4 4 4 4 4 4 5 5 5 5 6 7 7 7 6 5 6 8 10 10 9 9 11 10 9 7 8
3 3 3 3 3 3 3 4 5 4 4 4 4 4 4 4 4 4 5 5 5 6 7 7 6 5 6 6 8 9 11 11 8 7 7 9 12 13
Wind_Direction
226 230 236 242 250 258 260 260 265 277 280 276 278 280 296 299 305 300 301 308 307 305 306 307 307 307 307 306 305 305 305 305 303 302 302 302 302 302
225 232 241 248 252 259 262 267 267 269 275 284 287 290 297 295 299 299 301 302 300 303 305 306 306 305 304 304 304 304 304 304 302 301 302 302 302 302
226 233 243 253 257 258 261 264 266 269 273 287 290 291 290 296 301 300 299 298 299 299 302 303 304 305 305 304 304 304 304 304 303 302 303 302 302 302
231 238 246 252 258 261 260 262 266 271 273 281 288 289 291 297 299 298 300 298 296 298 299 301 302 303 303 304 303 302 301 302 302 302 302 302 302 302
231 239 247 248 255 261 266 266 269 273 274 273 284 290 292 296 297 296 298 297 297 297 296 298 299 300 301 301 300 299 300 301 301 302 302 302 302 301
237 248 250 251 255 261 265 266 271 277 275 274 281 286 291 296 295 298 299 299 300 298 295 297 296 297 296 298 298 298 300 300 300 302 301 301 300 300
240 254 259 263 269 270 268 265 268 270 272 273 277 284 286 296 296 299 297 301 298 294 298 297 297 295 296 295 295 299 300 300 302 303 302 302 301 300
237 255 264 255 255 270 274 275 274 268 270 275 277 278 285 290 295 294 298 300 298 299 301 298 298 295 297 296 304 307 306 304 305 305 303 303 303 302
238 247 256 255 260 262 273 284 285 284 275 273 274 279 285 290 293 293 292 293 293 301 300 292 295 294 296 298 304 304 306 307 308 308 307 306 305 304
243 247 251 254 258 268 275 280 290 294 291 286 278 283 287 288 286 286 288 291 289 287 289 288 295 297 299 296 302 303 305 306 308 308 308 308 307 305
260 258 255 256 255 271 278 280 292 297 300 292 293 294 295 294 292 289 289 290 291 291 293 288 296 303 297 291 298 303 304 305 307 308 308 308 308 306
258 260 258 261 264 271 272 270 279 289 294 298 297 297 295 293 291 283 283 285 291 292 296 297 299 313 302 293 303 306 304 305 307 306 305 306 308 305
256 261 259 262 278 281 286 279 279 293 291 291 293 294 295 293 291 288 286 281 282 280 292 298 294 294 285 296 300 300 303 306 307 304 303 306 307 303
257 263 264 274 286 290 288 286 296 300 290 290 292 295 298 299 299 297 291 284 278 279 286 286 280 286 290 292 292 298 302 303 302 301 302 306 303 298
273 278 287 286 287 281 277 290 294 289 287 289 292 295 298 297 297 295 290 285 283 279 278 276 274 280 279 282 288 294 301 302 298 299 302 302 301 301
280 283 287 281 282 284 284 285 289 289 290 290 294 297 299 296 295 297 297 300 295 290 283 279 278 279 279 280 282 288 292 294 300 302 301 297 296 293
297 286 280 278 275 283 294 301 302 298 296 296 294 295 296 297 297 300 297 297 294 300 306 303 291 282 276 279 282 283 289 293 295 300 300 298 296 296
291 265 265 270 274 285 291 296 298 298 299 296 293 293 296 297 298 299 296 294 296 300 304 310 313 306 292 270 252 280 292 298 302 302 299 297 300 302
272 265 269 275 282 285 285 289 293 295 294 290 289 291 292 293 295 297 298 299 300 303 306 309 310 310 309 310 295 267 295 303 304 303 302 299 299 303
274 269 273 279 282 281 282 285 288 290 288 288 289 288 289 291 293 296 299 303 306 307 307 306 307 308 302 302 300 297 293 295 301 303 305 301 295 295
283 278 278 278 277 278 280 281 282 284 286 288 288 290 291 291 293 298 301 304 303 302 305 306 308 308 297 290 289 293 298 294 293 297 305 306 307 310
281 278 279 278 277 276 278 279 281 283 287 288 292 293 294 293 294 297 299 302 302 302 303 304 308 307 301 298 300 303 307 310 306 301 296 294 302 310
281 280 279 278 276 274 275 276 279 283 287 289 291 293 295 295 295 294 296 298 301 304 307 309 310 307 303 300 302 304 309 314 317 319 313 311 304 297